User: anonymous   Login
Location: Unspecified
(0.0000°N, 0.0000°E)
Time: 02:56:21
(UTC+00:00)
Language:

STARLINK-34474 - Orbit

View from above orbital plane
View from above orbital plane
View from above satellite
View from above satellite

Ground track
Ground track

The orbit is defined by the following mean orbital elements,

1 64474U          26145.22193044 +.00000000 +00000-0 +62319-3 0 00005
2 64474  53.1569 121.4728 0001095  82.7679 277.3447 15.30190617    02
Epoch (UTC): 25 May 2026 05:19:34
Eccentricity: 0.0001095
inclination: 53.1569°
perigee height: 474 km
apogee height: 476 km
right ascension of ascending node: 121.4728°
argument of perigee: 82.7679°
revolutions per day: 15.30190617
mean anomaly at epoch: 277.3447°

The dashed part of the orbit path shows where the satellite is in the earth's shadow,  

DLR